Terminal Aerodrome Forecast
Issued by NWS Columbia, SC

Home | Current Version | Previous Version | Text Only | Print | Product List | Glossary On
Versions: 1 2 3 4 5 6 7 8 9 10 11 12 13 14 15 16 17 18 19 20 21 22 23 24 25 26 27 28 29
000
FTUS42 KCAE 011100
TAFCAE
TAF
KCAE 011120Z 0112/0212 29015G25KT 5SM -SHRA OVC015
      TEMPO 0112/0115 2SM RASN OVC008
     FM011500 31015G30KT P6SM -SHRA OVC020
     FM012100 30015G25KT P6SM BKN040
     FM020000 30012KT P6SM SCT040=

USA.gov is the U.S. government's official web portal to all federal, state and local government web resources and services.